When you browse on this site, cookies collect data to enhance your experience and personalize the content and advertising you see.
Visit our Privacy Policy to learn more. By continuing to use the site, you agree to this use of cookies and data.
  • In France
  • List of Countries
  • For 7 days
  • Water Temperature
  • Weather Map
  • Weather Widgets
  • user-avatar
    Login

    Hourly Weather Macapa

    Today, 21 November, Thursday

    Time Temperature Precipitation Wind Pressure Humidity
    00:00 +28°C° 0 mm 3 mps 756 mmHg 84%
    01:00 +27°C° 0 mm 3 mps 756 mmHg 85%
    02:00 +27°C° 0 mm 2 mps 756 mmHg 86%
    03:00 +27°C° 0 mm 2 mps 755 mmHg 88%
    04:00 +27°C° 0 mm 2 mps 756 mmHg 88%
    05:00 +26°C° 0 mm 2 mps 756 mmHg 89%
    06:00 +26°C° 0 mm 2 mps 756 mmHg 89%
    07:00 +28°C° 0 mm 2 mps 757 mmHg 81%
    08:00 +30°C° 0 mm 2 mps 757 mmHg 73%
    09:00 +32°C° 0 mm 2 mps 758 mmHg 65%
    10:00 +34°C° 0 mm 2 mps 757 mmHg 59%
    11:00 +35°C° 0 mm 3 mps 757 mmHg 52%
    12:00 +37°C° 0 mm 3 mps 756 mmHg 46%
    13:00 +37°C° 0.1 mm 3 mps 755 mmHg 47%
    14:00 +37°C° 0.1 mm 3 mps 755 mmHg 47%
    15:00 +37°C° 0.1 mm 3 mps 754 mmHg 47%
    16:00 +35°C° 0.1 mm 3 mps 754 mmHg 52%
    17:00 +34°C° 0.1 mm 3 mps 754 mmHg 58%
    18:00 +33°C° 0.1 mm 3 mps 754 mmHg 63%
    19:00 +30°C° 1 mm 3 mps 755 mmHg 71%
    20:00 +29°C° 1 mm 3 mps 755 mmHg 79%
    21:00 +28°C° 1 mm 3 mps 756 mmHg 87%
    22:00 +27°C° 1 mm 3 mps 756 mmHg 87%
    23:00 +27°C° 1 mm 3 mps 756 mmHg 88%

    Tomorrow, 22 November, Friday

    Time Temperature Precipitation Wind Pressure Humidity
    00:00 +27°C° 1 mm 3 mps 756 mmHg 89%
    01:00 +27°C° 2 mm 3 mps 756 mmHg 90%
    02:00 +27°C° 2 mm 3 mps 756 mmHg 90%
    03:00 +27°C° 2 mm 3 mps 755 mmHg 91%
    04:00 +27°C° 2.4 mm 3 mps 756 mmHg 91%
    05:00 +26°C° 2.4 mm 4 mps 756 mmHg 91%
    06:00 +26°C° 2.4 mm 4 mps 756 mmHg 91%
    07:00 +26°C° 2.3 mm 4 mps 757 mmHg 91%
    08:00 +26°C° 2.3 mm 3 mps 757 mmHg 91%
    09:00 +26°C° 2.3 mm 2 mps 758 mmHg 92%
    10:00 +27°C° 0.8 mm 1 mps 758 mmHg 90%
    11:00 +27°C° 0.8 mm 1 mps 758 mmHg 89%
    12:00 +25°C° 0.8 mm 0 mps 758 mmHg 88%
    13:00 +28°C° 0 mm 1 mps 757 mmHg 83%
    14:00 +29°C° 0 mm 1 mps 756 mmHg 79%
    15:00 +29°C° 0 mm 1 mps 755 mmHg 75%
    16:00 +29°C° 0 mm 1 mps 755 mmHg 76%
    17:00 +29°C° 0 mm 1 mps 755 mmHg 78%
    18:00 +29°C° 0 mm 1 mps 755 mmHg 79%
    19:00 +28°C° 0.2 mm 2 mps 755 mmHg 82%
    20:00 +28°C° 0.2 mm 2 mps 756 mmHg 85%
    21:00 +27°C° 0.2 mm 2 mps 756 mmHg 87%
    22:00 +27°C° 0.4 mm 2 mps 756 mmHg 89%
    23:00 +27°C° 0.4 mm 2 mps 756 mmHg 90%

    Day after tomorrow, 23 November, Saturday

    Time Temperature Precipitation Wind Pressure Humidity
    00:00 +27°C° 0.4 mm 2 mps 757 mmHg 92%
    01:00 +26°C° 0.8 mm 2 mps 756 mmHg 93%
    02:00 +26°C° 0.8 mm 2 mps 756 mmHg 93%
    03:00 +26°C° 0.8 mm 2 mps 755 mmHg 94%
    04:00 +26°C° 0 mm 2 mps 755 mmHg 94%
    05:00 +26°C° 0 mm 2 mps 756 mmHg 95%
    06:00 +26°C° 0 mm 2 mps 756 mmHg 95%
    07:00 +27°C° 0.1 mm 2 mps 757 mmHg 89%
    08:00 +29°C° 0.1 mm 2 mps 757 mmHg 82%
    09:00 +30°C° 0.1 mm 2 mps 758 mmHg 76%
    10:00 +31°C° 0.6 mm 3 mps 757 mmHg 72%
    11:00 +33°C° 0.6 mm 3 mps 757 mmHg 69%
    12:00 +34°C° 0.6 mm 3 mps 757 mmHg 65%
    13:00 +35°C° 0.1 mm 3 mps 756 mmHg 60%
    14:00 +35°C° 0.1 mm 3 mps 755 mmHg 55%
    15:00 +36°C° 0.1 mm 3 mps 755 mmHg 49%
    16:00 +35°C° 0 mm 3 mps 754 mmHg 56%
    17:00 +33°C° 0 mm 3 mps 754 mmHg 63%
    18:00 +32°C° 0 mm 4 mps 754 mmHg 69%
    19:00 +30°C° 0.1 mm 3 mps 755 mmHg 74%
    20:00 +29°C° 0.1 mm 3 mps 756 mmHg 80%
    21:00 +28°C° 0.1 mm 3 mps 756 mmHg 85%
    22:00 +28°C° 0.1 mm 3 mps 756 mmHg 87%
    23:00 +27°C° 0.1 mm 3 mps 756 mmHg 88%

    24 November, Sunday

    Time Temperature Precipitation Wind Pressure Humidity
    00:00 +27°C° 0.1 mm 2 mps 756 mmHg 90%
    01:00 +27°C° 0.2 mm 2 mps 756 mmHg 91%
    02:00 +27°C° 0.2 mm 2 mps 755 mmHg 91%
    03:00 +26°C° 0.2 mm 2 mps 755 mmHg 92%
    04:00 +26°C° 0 mm 2 mps 755 mmHg 92%
    05:00 +26°C° 0 mm 2 mps 755 mmHg 92%
    06:00 +26°C° 0 mm 2 mps 755 mmHg 92%
    07:00 +28°C° 0 mm 2 mps 756 mmHg 84%
    08:00 +30°C° 0 mm 2 mps 756 mmHg 75%
    09:00 +31°C° 0 mm 2 mps 757 mmHg 67%
    10:00 +34°C° 0 mm 2 mps 757 mmHg 61%
    11:00 +35°C° 0 mm 2 mps 756 mmHg 55%
    12:00 +36°C° 0 mm 3 mps 756 mmHg 49%
    13:00 +36°C° 0 mm 3 mps 755 mmHg 49%
    14:00 +36°C° 0 mm 3 mps 754 mmHg 48%
    15:00 +37°C° 0 mm 3 mps 754 mmHg 48%
    16:00 +35°C° 0.1 mm 3 mps 754 mmHg 54%
    17:00 +34°C° 0.1 mm 3 mps 754 mmHg 60%
    18:00 +31°C° 0.1 mm 3 mps 754 mmHg 66%
    19:00 +30°C° 0.1 mm 3 mps 754 mmHg 70%
    20:00 +29°C° 0.1 mm 3 mps 755 mmHg 73%
    21:00 +29°C° 0.1 mm 4 mps 755 mmHg 77%
    22:00 +28°C° 0 mm 4 mps 756 mmHg 78%
    23:00 +28°C° 0 mm 4 mps 756 mmHg 80%

    25 November, Monday

    Time Temperature Precipitation Wind Pressure Humidity
    00:00 +28°C° 0 mm 4 mps 756 mmHg 82%
    01:00 +28°C° 0.4 mm 3 mps 755 mmHg 84%
    02:00 +28°C° 0.4 mm 3 mps 755 mmHg 85%
    03:00 +27°C° 0.4 mm 3 mps 754 mmHg 87%
    04:00 +27°C° 0.2 mm 3 mps 755 mmHg 88%
    05:00 +27°C° 0.2 mm 3 mps 755 mmHg 89%
    06:00 +27°C° 0.2 mm 3 mps 755 mmHg 89%
    07:00 +29°C° 0.1 mm 3 mps 756 mmHg 81%
    08:00 +30°C° 0.1 mm 3 mps 756 mmHg 73%
    09:00 +33°C° 0.1 mm 4 mps 757 mmHg 65%
    10:00 +34°C° 0.3 mm 4 mps 757 mmHg 62%
    11:00 +35°C° 0.3 mm 4 mps 756 mmHg 58%
    12:00 +36°C° 0.3 mm 4 mps 756 mmHg 55%
    13:00 +36°C° 0.1 mm 4 mps 755 mmHg 54%
    14:00 +36°C° 0.1 mm 4 mps 754 mmHg 52%
    15:00 +36°C° 0.1 mm 4 mps 754 mmHg 51%
    16:00 +35°C° 0 mm 4 mps 754 mmHg 57%
    17:00 +33°C° 0 mm 4 mps 754 mmHg 62%
    18:00 +32°C° 0 mm 4 mps 754 mmHg 68%
    19:00 +30°C° 0 mm 4 mps 755 mmHg 73%
    20:00 +29°C° 0 mm 4 mps 755 mmHg 77%
    21:00 +28°C° 0 mm 4 mps 755 mmHg 82%
    22:00 +28°C° 0.1 mm 3 mps 755 mmHg 84%
    23:00 +28°C° 0.1 mm 3 mps 756 mmHg 86%

    26 November, Tuesday

    Time Temperature Precipitation Wind Pressure Humidity
    00:00 +27°C° 0.1 mm 3 mps 756 mmHg 88%
    01:00 +27°C° 0.1 mm 3 mps 755 mmHg 90%
    02:00 +27°C° 0.1 mm 3 mps 755 mmHg 91%
    03:00 +27°C° 0.1 mm 2 mps 754 mmHg 92%
    04:00 +26°C° 0.1 mm 2 mps 755 mmHg 93%
    05:00 +26°C° 0.1 mm 2 mps 755 mmHg 94%
    06:00 +26°C° 0.1 mm 2 mps 755 mmHg 95%
    07:00 +28°C° 0.1 mm 3 mps 756 mmHg 86%
    08:00 +30°C° 0.1 mm 3 mps 756 mmHg 77%
    09:00 +32°C° 0.1 mm 4 mps 757 mmHg 69%
    10:00 +33°C° 0.1 mm 4 mps 757 mmHg 63%
    11:00 +35°C° 0.1 mm 4 mps 756 mmHg 58%
    12:00 +36°C° 0.1 mm 4 mps 756 mmHg 53%
    13:00 +36°C° 0.1 mm 5 mps 755 mmHg 52%
    14:00 +36°C° 0.1 mm 5 mps 755 mmHg 51%
    15:00 +36°C° 0.1 mm 5 mps 754 mmHg 50%
    16:00 +35°C° 0 mm 5 mps 754 mmHg 56%
    17:00 +33°C° 0 mm 4 mps 754 mmHg 62%
    18:00 +32°C° 0 mm 4 mps 754 mmHg 68%
    19:00 +30°C° 0 mm 4 mps 755 mmHg 72%
    20:00 +29°C° 0 mm 4 mps 756 mmHg 76%
    21:00 +28°C° 0 mm 4 mps 756 mmHg 80%
    22:00 +28°C° 0 mm 3 mps 756 mmHg 82%
    23:00 +28°C° 0 mm 3 mps 756 mmHg 85%
    Show more